This is the latest recevied weather packets stored in our database for station/object KC3BHK-2. If no packets are shown the sender has not sent any weather packets the latest 10 day(s).
| Time | Temp. | Humidity | Pressure | Rain* | Wind** | Luminosity | Snow |
|---|---|---|---|---|---|---|---|
| 1777899873 | 13.89° C | - | - | 0 mm | 2.24 m/s, 174° | - | - |
| 1777899566 | 12.78° C | - | - | 0 mm | 1.79 m/s, 152° | - | - |
| 1777899261 | 12.22° C | - | - | 0 mm | 0.89 m/s, 121° | - | - |
| 1777898956 | 12.78° C | - | - | 0 mm | 1.34 m/s, 162° | - | - |
| 1777898651 | 12.22° C | - | - | 0 mm | 2.24 m/s, 135° | - | - |
| 1777898346 | 11.67° C | - | - | 0 mm | 0.89 m/s, 108° | - | - |
| 1777898042 | 11.11° C | - | - | 0 mm | 1.79 m/s, 187° | - | - |
| 1777897734 | 11.11° C | - | - | 0 mm | 3.58 m/s, 121° | - | - |
| 1777897429 | 10.56° C | - | - | 0 mm | 1.79 m/s, 146° | - | - |
| 1777897124 | 10.56° C | - | - | 0 mm | 0.89 m/s, 127° | - | - |
| 1777896514 | 10.56° C | - | - | 0 mm | 1.34 m/s, 211° | - | - |
| 1777896210 | 10° C | - | - | 0 mm | 2.24 m/s, 181° | - | - |
| 1777895902 | 10° C | - | - | 0 mm | 1.79 m/s, 170° | - | - |
| 1777895597 | 9.44° C | - | - | 0 mm | 2.68 m/s, 176° | - | - |
| 1777895292 | 9.44° C | - | - | 0 mm | 2.68 m/s, 218° | - | - |
| 1777894987 | 9.44° C | - | - | 0 mm | 1.79 m/s, 217° | - | - |
| 1777894682 | 8.89° C | - | - | 0 mm | 1.34 m/s, 141° | - | - |
| 1777894377 | 8.33° C | - | - | 0 mm | 1.34 m/s, 174° | - | - |
| 1777894069 | 8.33° C | - | - | 0 mm | 0.89 m/s, 195° | - | - |
| 1777893458 | 8.33° C | - | - | 0 mm | 1.79 m/s, 246° | - | - |
| 1777893154 | 7.78° C | - | - | 0 mm | 2.24 m/s, 215° | - | - |
| 1777892543 | 8.33° C | - | - | 0 mm | 0.45 m/s, 166° | - | - |
| 1777892235 | 7.78° C | - | - | 0 mm | 0 m/s | - | - |
| 1777891930 | 7.78° C | - | - | 0 mm | 0 m/s | - | - |
| 1777891625 | 7.22° C | - | - | 0 mm | 0 m/s | - | - |
* Rain latest hour (hover to see other rain measurements)
** Current wind speed in m/s (hover to see current wind gust speed)